DELTA 1 DEB

Satellite information

Favourite Embed

Satellite Type and Status

DEBRISIN ORBIT

Key statistics

Satellite DELTA 1 DEB at a glance.

Uptime

18395

Days in orbit

Revolutions

≈ 14.4

Per day

Orbit

SSO

Sun Synchronous Orbit

Inclination

98.8

Latest

Satellite identification and parameters

Extended collection of information and parameters for DELTA 1 DEB.

Object identification

Identified? True

Debris? True

Object name: DELTA 1 DEB

International designator: 1975-052MW

Object number (NORAD): 42661

Object ID (CCSDS): 42661

Country: UNITED STATES OF AMERICA (US)

Current information (Y/N): Y

RCS size: SMALL

Orbital parameters

Period: 99.801 minutes

Inclination: 98.7999 deg

SMA: 7127.17 km

Apoapsis: 751.236 km

Periapsis: 746.833 km

RAAN: 296.2273 deg

Eccentricy: 0.00030895

Argument of periapsis: 309.5091 deg

Mean anomaly: 50.5824 deg

Mean motion: 14.42869755 rev/day

Mean motion (dot): 0.00001551 rev/day2

B* drag term: 0.00047837268 1/REarth

Two-line elements (TLE)

Creation date: Oct. 18, 2025, 2:17 a.m.

Reference frame: TEME

Reference center: EARTH

Epoch: Oct. 17, 2025, 5:56 p.m. UTC

TLE line 0: 0 DELTA 1 DEB

TLE line 1: 1 42661U 75052MW 25290.74791491 .00001551 00000-0 47837-3 0 9992

TLE line 2: 2 42661 98.7999 296.2273 0003089 309.5091 50.5824 14.42869755624973

Live tracking on map

Real-time ground track for satellite DELTA 1 DEB.

In-orbit conjunctions

A list of the most updated potential collisions computed for object DELTA 1 DEB.

Target Orbit TCA Probability of collision Miss distance Type
FENGYUN 1C DEB SSO 2025-09-27 15:41:33 0.0007272805 116.0 (m) DEBRIS
COSMOS 2251 DEB LEO 2025-07-13 21:51:12 0.0001759711 584.0 (m) DEBRIS
SL-8 R/B LEO 2025-02-06 17:25:05 0.0003829527 637.0 (m) ROCKET BODY

Associated space launch

Experimental meteorological satellite

DELTA 1 DEB was lifted into orbit during the mission ‘Delta 2910 | Nimbus 6’, on board a Delta 2910 space rocket.

The launch took place on June 12, 1975, 8:12 a.m. from Space Launch Complex 2W.

For more information about the launch, click the button.

Launch to space Delta 2910 | Nimbus 6
Delta 2910 | Nimbus 6

Agency: N/A

Status: Launch Successful

Launch date: June 12, 1975, 8:12 a.m. UTC

Rocket: Delta 2910

Launch pad: Space Launch Complex 2W

Location: Vandenberg SFB, CA, USA

...

Latest news about this satellite

There are no fresh news available about this satellite. Check back as we update our databases every day.


Newsletter sign-up

Weekly statistics, charts and insights to help you stay on top of the space industry.